• In Deutschland
  • Länderverzeichnis
  • Für 7 Tage
  • Wassertemperatur
  • Satellitenkarten
  • Wetterkarte
  • Widgets
  • user-avatar
    Anmelden

    Stündliche Wetter Bania Luka

    Heute, 21 November, Dienstag

    Zeit Temperatur Niederschläge Wind Luftdruck Luftfeuchtigkeit
    00:00 +2°C° 0 mm 1 m/S 717 mmHg 66%
    01:00 +1°C° 0 mm 2 m/S 717 mmHg 66%
    02:00 +1°C° 0 mm 2 m/S 716 mmHg 66%
    03:00 +1°C° 0 mm 2 m/S 716 mmHg 66%
    04:00 +1°C° 0 mm 2 m/S 716 mmHg 65%
    05:00 +1°C° 0 mm 2 m/S 716 mmHg 66%
    06:00 +1°C° 0 mm 2 m/S 716 mmHg 66%
    07:00 +1°C° 0 mm 2 m/S 716 mmHg 66%
    08:00 +3°C° 0 mm 2 m/S 716 mmHg 62%
    09:00 +5°C° 0 mm 2 m/S 716 mmHg 58%
    10:00 +7°C° 0 mm 2 m/S 716 mmHg 55%
    11:00 +8°C° 0 mm 2 m/S 716 mmHg 56%
    12:00 +9°C° 0 mm 2 m/S 716 mmHg 57%
    13:00 +10°C° 0 mm 2 m/S 716 mmHg 59%
    14:00 +9°C° 0 mm 2 m/S 716 mmHg 65%
    15:00 +8°C° 0 mm 2 m/S 716 mmHg 71%
    16:00 +7°C° 0 mm 1 m/S 716 mmHg 78%
    17:00 +6°C° 0 mm 2 m/S 716 mmHg 81%
    18:00 +5°C° 0 mm 2 m/S 716 mmHg 83%
    19:00 +4°C° 0 mm 2 m/S 716 mmHg 86%
    20:00 +4°C° 0 mm 2 m/S 716 mmHg 87%
    21:00 +4°C° 0 mm 2 m/S 716 mmHg 88%
    22:00 +4°C° 0 mm 2 m/S 717 mmHg 89%
    23:00 +4°C° 0 mm 2 m/S 717 mmHg 89%

    Morgen, 22 November, Mittwoch

    Zeit Temperatur Niederschläge Wind Luftdruck Luftfeuchtigkeit
    00:00 +4°C° 0 mm 2 m/S 717 mmHg 89%
    01:00 +4°C° 0 mm 2 m/S 717 mmHg 89%
    02:00 +3°C° 0 mm 2 m/S 717 mmHg 90%
    03:00 +3°C° 0 mm 2 m/S 717 mmHg 90%
    04:00 +3°C° 0 mm 2 m/S 717 mmHg 90%
    05:00 +3°C° 0 mm 2 m/S 717 mmHg 90%
    06:00 +3°C° 0 mm 2 m/S 717 mmHg 90%
    07:00 +3°C° 0 mm 2 m/S 717 mmHg 90%
    08:00 +5°C° 0 mm 2 m/S 717 mmHg 85%
    09:00 +7°C° 0 mm 2 m/S 717 mmHg 79%
    10:00 +10°C° 0 mm 1 m/S 718 mmHg 73%
    11:00 +11°C° 0 mm 1 m/S 717 mmHg 71%
    12:00 +12°C° 0 mm 1 m/S 717 mmHg 68%
    13:00 +13°C° 0 mm 1 m/S 717 mmHg 65%
    14:00 +12°C° 0 mm 1 m/S 717 mmHg 71%
    15:00 +11°C° 0 mm 1 m/S 717 mmHg 77%
    16:00 +9°C° 0 mm 1 m/S 716 mmHg 83%
    17:00 +9°C° 0 mm 1 m/S 717 mmHg 86%
    18:00 +8°C° 0 mm 1 m/S 717 mmHg 88%
    19:00 +7°C° 0 mm 1 m/S 717 mmHg 91%
    20:00 +5°C° 0 mm 2 m/S 717 mmHg 91%
    21:00 +5°C° 0 mm 2 m/S 717 mmHg 90%
    22:00 +5°C° 0 mm 2 m/S 717 mmHg 90%
    23:00 +5°C° 0 mm 2 m/S 717 mmHg 89%

    übermorgen, 23 November, Donnerstag

    Zeit Temperatur Niederschläge Wind Luftdruck Luftfeuchtigkeit
    00:00 +5°C° 0 mm 2 m/S 717 mmHg 88%
    01:00 +4°C° 0 mm 2 m/S 717 mmHg 87%
    02:00 +4°C° 0 mm 2 m/S 717 mmHg 87%
    03:00 +4°C° 0 mm 2 m/S 717 mmHg 87%
    04:00 +4°C° 0 mm 2 m/S 717 mmHg 86%
    05:00 +4°C° 0 mm 2 m/S 717 mmHg 86%
    06:00 +4°C° 0 mm 2 m/S 717 mmHg 86%
    07:00 +4°C° 0 mm 2 m/S 717 mmHg 86%
    08:00 +6°C° 0 mm 2 m/S 718 mmHg 81%
    09:00 +9°C° 0 mm 1 m/S 718 mmHg 76%
    10:00 +11°C° 0 mm 1 m/S 718 mmHg 71%
    11:00 +12°C° 0 mm 1 m/S 719 mmHg 68%
    12:00 +13°C° 0 mm 1 m/S 719 mmHg 65%
    13:00 +14°C° 0 mm 1 m/S 719 mmHg 62%
    14:00 +13°C° 0 mm 1 m/S 719 mmHg 69%
    15:00 +11°C° 0 mm 1 m/S 719 mmHg 75%
    16:00 +10°C° 0 mm 1 m/S 718 mmHg 81%
    17:00 +9°C° 0 mm 1 m/S 719 mmHg 84%
    18:00 +8°C° 0 mm 1 m/S 719 mmHg 86%
    19:00 +8°C° 0 mm 1 m/S 719 mmHg 89%
    20:00 +7°C° 0 mm 1 m/S 719 mmHg 89%
    21:00 +7°C° 0 mm 1 m/S 720 mmHg 89%
    22:00 +7°C° 0 mm 1 m/S 720 mmHg 90%
    23:00 +7°C° 0 mm 1 m/S 720 mmHg 89%

    24 November, Freitag

    Zeit Temperatur Niederschläge Wind Luftdruck Luftfeuchtigkeit
    00:00 +6°C° 0 mm 1 m/S 720 mmHg 89%
    01:00 +6°C° 0 mm 1 m/S 720 mmHg 89%
    02:00 +6°C° 0 mm 1 m/S 720 mmHg 88%
    03:00 +6°C° 0 mm 1 m/S 720 mmHg 88%
    04:00 +6°C° 0 mm 1 m/S 720 mmHg 88%
    05:00 +6°C° 0 mm 1 m/S 720 mmHg 88%
    06:00 +6°C° 0 mm 1 m/S 720 mmHg 88%
    07:00 +5°C° 0 mm 1 m/S 720 mmHg 88%
    08:00 +7°C° 0 mm 1 m/S 720 mmHg 82%
    09:00 +8°C° 0 mm 0 m/S 721 mmHg 76%
    10:00 +10°C° 0 mm 0 m/S 721 mmHg 69%
    11:00 +11°C° 0 mm 0 m/S 721 mmHg 66%
    12:00 +13°C° 0 mm 1 m/S 721 mmHg 63%
    13:00 +14°C° 0 mm 1 m/S 721 mmHg 60%
    14:00 +12°C° 0 mm 1 m/S 720 mmHg 67%
    15:00 +10°C° 0 mm 0 m/S 720 mmHg 73%
    16:00 +8°C° 0 mm 0 m/S 720 mmHg 80%
    17:00 +8°C° 0 mm 0 m/S 720 mmHg 82%
    18:00 +8°C° 0 mm 1 m/S 720 mmHg 84%
    19:00 +7°C° 0 mm 1 m/S 720 mmHg 87%
    20:00 +7°C° 0 mm 1 m/S 720 mmHg 86%
    21:00 +7°C° 0 mm 1 m/S 721 mmHg 85%
    22:00 +7°C° 0 mm 1 m/S 721 mmHg 84%
    23:00 +6°C° 0 mm 1 m/S 721 mmHg 83%

    25 November, Samstag

    Zeit Temperatur Niederschläge Wind Luftdruck Luftfeuchtigkeit
    00:00 +6°C° 0 mm 1 m/S 721 mmHg 82%
    01:00 +6°C° 0 mm 1 m/S 721 mmHg 81%
    02:00 +6°C° 0 mm 1 m/S 720 mmHg 80%
    03:00 +6°C° 0 mm 1 m/S 720 mmHg 79%
    04:00 +5°C° 0 mm 1 m/S 720 mmHg 78%
    05:00 +5°C° 0 mm 1 m/S 720 mmHg 77%
    06:00 +5°C° 0 mm 1 m/S 720 mmHg 77%
    07:00 +5°C° 0 mm 1 m/S 720 mmHg 76%
    08:00 +7°C° 0 mm 1 m/S 720 mmHg 71%
    09:00 +9°C° 0 mm 1 m/S 721 mmHg 66%
    10:00 +11°C° 0 mm 1 m/S 721 mmHg 60%
    11:00 +12°C° 0 mm 1 m/S 721 mmHg 58%
    12:00 +13°C° 0 mm 1 m/S 720 mmHg 55%
    13:00 +14°C° 0 mm 1 m/S 720 mmHg 53%
    14:00 +13°C° 0 mm 1 m/S 720 mmHg 59%
    15:00 +11°C° 0 mm 1 m/S 720 mmHg 66%
    16:00 +10°C° 0 mm 1 m/S 719 mmHg 73%
    17:00 +9°C° 0 mm 1 m/S 719 mmHg 76%
    18:00 +8°C° 0 mm 1 m/S 719 mmHg 79%
    19:00 +7°C° 0 mm 1 m/S 719 mmHg 82%
    20:00 +6°C° 0 mm 2 m/S 719 mmHg 82%
    21:00 +6°C° 0 mm 2 m/S 720 mmHg 82%
    22:00 +5°C° 0 mm 2 m/S 720 mmHg 83%
    23:00 +5°C° 0 mm 2 m/S 720 mmHg 82%

    26 November, Sonntag

    Zeit Temperatur Niederschläge Wind Luftdruck Luftfeuchtigkeit
    00:00 +5°C° 0 mm 2 m/S 720 mmHg 82%
    01:00 +5°C° 0 mm 2 m/S 720 mmHg 82%
    02:00 +5°C° 0 mm 2 m/S 719 mmHg 82%
    03:00 +5°C° 0 mm 2 m/S 719 mmHg 82%
    04:00 +5°C° 0 mm 2 m/S 719 mmHg 82%
    05:00 +5°C° 0 mm 2 m/S 719 mmHg 82%
    06:00 +5°C° 0 mm 2 m/S 719 mmHg 83%
    07:00 +5°C° 0 mm 2 m/S 719 mmHg 83%
    08:00 +7°C° 0 mm 1 m/S 720 mmHg 79%
    09:00 +9°C° 0 mm 1 m/S 720 mmHg 74%
    10:00 +11°C° 0 mm 1 m/S 721 mmHg 70%
    11:00 +12°C° 0 mm 1 m/S 720 mmHg 67%
    12:00 +13°C° 0 mm 1 m/S 720 mmHg 64%
    13:00 +14°C° 0 mm 1 m/S 720 mmHg 62%
    14:00 +13°C° 0 mm 1 m/S 720 mmHg 68%
    15:00 +12°C° 0 mm 1 m/S 719 mmHg 74%
    16:00 +10°C° 0 mm 1 m/S 719 mmHg 80%
    17:00 +10°C° 0 mm 1 m/S 719 mmHg 81%
    18:00 +9°C° 0 mm 1 m/S 719 mmHg 83%
    19:00 +9°C° 0 mm 1 m/S 720 mmHg 85%
    20:00 +9°C° 0,3 mm 1 m/S 720 mmHg 87%
    21:00 +7°C° 0,3 mm 2 m/S 720 mmHg 89%
    22:00 +7°C° 0,3 mm 2 m/S 721 mmHg 90%
    23:00 +6°C° 1,1 mm 2 m/S 721 mmHg 91%
    Mehr zeigen